Flag for U.S.A. Weather past 2 weeks in Springfield, Missouri, U.S.A.

Now
47 °F

Low clouds.


Feels Like: 41 °F
Forecast: 42 / 49 °F
Wind: 13 mph from Southeast

Location: Springfield Regional Airport

Current Time: Dec 22, 2014 at 12:58:28 PM

Latest Report: Dec 22, 2014 at 11:52 AM


Visibility: 10 mi

Pressure: 29.55 "Hg

Humidity: 90%

Dew point: 44 °F

Location of SpringfieldLocation

Historic Weather in Springfield — Graph

°F

Springfield temperature yesterday

Maximum temperature yesterday: 43 °F (at 10:52 PM)
Minimum temperature yesterday: 40 °F (at 12:52 AM)
Average temperature yesterday: 41 °F

Past Weeks' High & Low Weather Summary

 TemperatureHumidityPressure
High58 °F (Dec 14, 3:52 PM)97% (Dec 8, 4:52 AM)30.43 "Hg (Dec 8, 4:52 AM)
Low25 °F (Dec 17, 5:52 AM)53% (Dec 9, 1:52 PM)29.60 "Hg (Dec 22, 10:52 AM)
Average41 °F84%30.16 "Hg
* Reported Dec 7 10:52 AM — Dec 22 10:52 AM, Springfield, Weather by CustomWeather, © 2014

Note: Actual official high and low records may vary slightly from our data, if they occured in-between our weather recording intervals... More about our weather records

Advertising

Springfield weather history for previous 24 hours

 ConditionsComfort  
Time TempWeatherWind HumidityBarometerVisibility
10:52 AM
Dec 22
45 °FRain. Fog.13 mph93%29.60 "Hg4 mi
9:52 AM44 °FRain. Fog.10 mph93%29.63 "Hg4 mi
8:52 AM44 °FLight rain. Fog.14 mph89%29.63 "Hg5 mi
7:52 AM43 °FLight rain. More clouds than sun.14 mph93%29.65 "Hg7 mi
6:52 AM42 °FLow clouds.13 mph89%29.66 "Hg10 mi
5:52 AM42 °FLow clouds.13 mph89%29.65 "Hg10 mi
4:52 AM43 °FMostly cloudy.15 mph82%29.66 "Hg10 mi
3:52 AM43 °FMostly cloudy.14 mph76%29.68 "Hg10 mi
2:52 AM43 °FMostly cloudy.15 mph76%29.71 "Hg10 mi
1:52 AM43 °FMostly cloudy.16 mph76%29.73 "Hg10 mi
12:52 AM42 °FMostly cloudy.17 mph79%29.76 "Hg10 mi
11:52 PM
Dec 21
42 °FOvercast.15 mph79%29.81 "Hg10 mi
10:52 PM43 °FMostly cloudy.15 mph76%29.83 "Hg10 mi
9:52 PM42 °FOvercast.15 mph76%29.83 "Hg10 mi
8:52 PM42 °FOvercast.13 mph76%29.86 "Hg10 mi
7:52 PM42 °FOvercast.14 mph76%29.87 "Hg10 mi
6:52 PM41 °FOvercast.13 mph80%29.88 "Hg10 mi
5:52 PM41 °FOvercast.16 mph80%29.89 "Hg10 mi
4:52 PM42 °FOvercast.14 mph79%29.91 "Hg10 mi
3:52 PM42 °FOvercast.14 mph79%29.93 "Hg10 mi
2:52 PM42 °FMore clouds than sun.16 mph79%29.93 "Hg10 mi
1:52 PM42 °FOvercast.17 mph82%29.94 "Hg10 mi
12:52 PM42 °FMore clouds than sun.13 mph82%29.98 "Hg10 mi
Weather by CustomWeather, © 2014

See weather overviewHow to use our weather pages